Springfield, OH

7:41 AM EDT on March 28, 2017 (GMT -0400)
Springfield-Beckley Municipal

Weather History for KSGH - April, 2014

Change the Weather History Date:

Monday, April 7, 2014

  Actual Average (KFFO) Record (KFFO)
Temperature  
Mean Temperature 48 °F -  
Max Temperature 53 °F 60 °F 86 °F (2001)
Min Temperature 43 °F 37 °F 19 °F (2007)
Degree Days  
Heating Degree Days 17    
Moisture  
Dew Point 47 °F    
Average Humidity 93    
Maximum Humidity 100    
Minimum Humidity 60    
Precipitation  
Precipitation 0.85 in - - ()
Sea Level Pressure  
Sea Level Pressure 29.55 in    
Wind  
Wind Speed 9 mph (ENE)    
Max Wind Speed 28 mph    
Max Gust Speed 32 mph    
Visibility 3 miles    
Events Rain , Thunderstorm    
Averages and records for this station are not official NWS values.
T = Trace of Precipitation, MM = Missing Value Source: NWS Daily Summary

Daily Weather History Graph

Daily Weather History Graph

Search for Another Location

Airport or City:

Trip Planner

Search our weather history database for the weather conditions in past years. The results will help you decide how hot, cold, wet, or windy it might be!

Date:

Astronomy

Apr. 07, 2014 Rise Set
Actual Time 7:09 AM EDT 8:05 PM EDT
Civil Twilight 6:42 AM EDT 8:33 PM EDT
Nautical Twilight 6:09 AM EDT 9:05 PM EDT
Astronomical Twilight 5:35 AM EDT 9:39 PM EDT
Moon 1:05 PM EDT (4/7) 2:41 AM EDT (4/7)
Length of Visible Light 13h 50m
Length of Day
12h 55m
First Quarter, 53% of the Moon is Illuminated
Apr 7
First Quarter
Apr 15
Full
Apr 22
Last Quarter
Apr 29
New
May 6
First Quarter

Hourly Weather History & Observations

Time (EDT) Temp. Windchill Dew Point Humidity Pressure Visibility Wind Dir Wind Speed Gust Speed Precip Events Conditions
12:56 AM 45.0 °F 41.8 °F 32.0 °F 60% 29.96 in 8.0 mi East 5.8 mph - N/A   Clear
1:56 AM 43.0 °F 38.2 °F 32.9 °F 68% 29.92 in 8.0 mi NE 8.1 mph - N/A   Clear
2:56 AM 43.0 °F 38.8 °F 32.9 °F 68% 29.89 in 8.0 mi ENE 6.9 mph - N/A   Clear
3:56 AM 43.9 °F 39.3 °F 34.0 °F 68% 29.85 in 8.0 mi ENE 8.1 mph - N/A   Clear
4:56 AM 45.0 °F 41.2 °F 34.0 °F 65% 29.81 in 8.0 mi East 6.9 mph - N/A   Clear
5:56 AM 45.9 °F 41.7 °F 32.9 °F 61% 29.81 in 8.0 mi East 8.1 mph - N/A   Mostly Cloudy
6:56 AM 45.9 °F 41.7 °F 34.9 °F 66% 29.81 in 7.0 mi East 8.1 mph - N/A   Overcast
7:56 AM 45.9 °F 42.3 °F 36.0 °F 68% 29.80 in 6.0 mi East 6.9 mph - N/A   Haze
8:56 AM 48.9 °F - 36.9 °F 63% 29.76 in 6.0 mi East 8.1 mph - N/A   Haze
9:56 AM 50.0 °F - 39.9 °F 68% 29.77 in 6.0 mi Calm Calm - N/A   Haze
10:16 AM 50.0 °F - 44.6 °F 82% 29.76 in 1.8 mi Calm Calm - 0.00 in Rain Light Rain
10:41 AM 48.2 °F - 44.6 °F 87% 29.74 in 3.0 mi Calm Calm - 0.03 in Rain Light Rain
10:56 AM 48.9 °F - 45.9 °F 89% 29.73 in 2.0 mi North 5.8 mph - 0.04 in Rain Light Rain
11:24 AM 48.2 °F - 48.2 °F 100% 29.71 in 1.5 mi NNE 6.9 mph - 0.01 in Rain Light Rain
11:29 AM 48.2 °F - 48.2 °F 100% 29.71 in 1.2 mi NNE 6.9 mph - 0.01 in Rain Light Rain
11:37 AM 48.2 °F - 48.2 °F 100% 29.69 in 1.2 mi NNE 9.2 mph - 0.02 in Rain Rain
11:46 AM 48.2 °F - 48.2 °F 100% 29.68 in 1.5 mi NNE 9.2 mph - 0.05 in Rain Heavy Rain
11:56 AM 48.9 °F - 48.9 °F 100% 29.68 in 1.8 mi NE 9.2 mph - 0.06 in Rain Light Rain
12:05 PM 50.0 °F - 48.2 °F 94% 29.67 in 2.5 mi NNE 9.2 mph - 0.01 in Rain Light Rain
12:30 PM 50.0 °F - 48.2 °F 94% 29.66 in 1.2 mi NNE 11.5 mph - 0.05 in Rain Heavy Rain
12:38 PM 50.0 °F - 48.2 °F 94% 29.65 in 1.2 mi NNE 10.4 mph - 0.06 in Rain Light Rain
12:40 PM 50.0 °F - 48.2 °F 94% 29.65 in 1.5 mi NNE 10.4 mph - 0.06 in Rain Light Rain
12:56 PM 50.0 °F - 48.9 °F 96% 29.65 in 2.0 mi NNE 11.5 mph - 0.08 in Rain Light Rain
1:09 PM 50.0 °F - 48.2 °F 94% 29.63 in 3.0 mi NNE 10.4 mph - 0.00 in Rain Light Rain
1:14 PM 48.2 °F - 48.2 °F 100% 29.62 in 2.5 mi NNE 10.4 mph - 0.01 in Rain Light Rain
1:20 PM 50.0 °F - 48.2 °F 94% 29.62 in 1.8 mi NE 9.2 mph - 0.04 in Rain Heavy Rain
1:39 PM 50.0 °F - 48.2 °F 94% 29.60 in 1.8 mi ENE 13.8 mph - 0.09 in Rain Rain
1:49 PM 48.2 °F - 48.2 °F 100% 29.61 in 2.5 mi East 13.8 mph - 0.10 in Rain Light Rain
1:56 PM 48.9 °F - 48.9 °F 100% 29.60 in 3.0 mi East 18.4 mph - 0.11 in Rain Light Rain
2:08 PM 48.2 °F - 48.2 °F 100% 29.54 in 2.5 mi East 23.0 mph - 0.02 in Rain Rain
2:23 PM 48.2 °F - 46.4 °F 93% 29.51 in 1.8 mi East 27.6 mph 32.2 mph 0.05 in Rain Rain
2:33 PM 48.2 °F - 46.4 °F 93% 29.53 in 1.8 mi East 20.7 mph 29.9 mph 0.08 in Rain Rain
2:42 PM 48.2 °F - 46.4 °F 93% 29.51 in 2.5 mi East 20.7 mph 29.9 mph 0.10 in Rain Rain
2:56 PM 47.8 °F - 47.8 °F 100% 29.56 in 2.5 mi East 17.3 mph 25.3 mph 0.12 in Rain Light Rain
3:06 PM 48.2 °F - 48.2 °F 100% 29.55 in 3.0 mi East 13.8 mph - 0.01 in Rain Light Rain
3:17 PM 48.2 °F - 48.2 °F 100% 29.52 in 2.5 mi East 15.0 mph - 0.02 in Rain Light Rain
3:29 PM 48.2 °F - 48.2 °F 100% 29.52 in 3.0 mi East 15.0 mph 20.7 mph 0.02 in Rain Light Rain
3:56 PM 50.0 °F - 48.9 °F 96% 29.50 in 6.0 mi East 15.0 mph - 0.02 in   Overcast
4:56 PM 50.9 °F - 50.0 °F 97% 29.46 in 2.0 mi East 10.4 mph - 0.04 in Rain Light Rain
5:12 PM 51.8 °F - 50.0 °F 94% 29.44 in 3.0 mi East 11.5 mph - 0.01 in Rain Light Rain
5:22 PM 51.8 °F - 50.0 °F 94% 29.44 in 1.8 mi East 12.7 mph - 0.01 in Rain Light Rain
5:33 PM 51.8 °F - 51.8 °F 100% 29.43 in 1.2 mi ESE 10.4 mph - 0.01 in Rain Light Rain
5:56 PM 50.9 °F - 50.9 °F 100% 29.41 in 1.5 mi ESE 12.7 mph - 0.01 in Rain Light Rain
6:08 PM 51.8 °F - 51.8 °F 100% 29.40 in 2.5 mi ESE 11.5 mph - 0.00 in   Overcast
6:15 PM 51.8 °F - 51.8 °F 100% 29.39 in 4.0 mi ESE 12.7 mph - 0.00 in   Overcast
6:56 PM 52.0 °F - 50.9 °F 96% 29.39 in 6.0 mi SE 10.4 mph - 0.00 in   Overcast
7:13 PM 51.8 °F - 51.8 °F 100% 29.38 in 6.0 mi ESE 9.2 mph - N/A   Overcast
7:23 PM 51.8 °F - 51.8 °F 100% 29.38 in 6.0 mi ESE 4.6 mph - N/A   Overcast
7:35 PM 51.8 °F - 51.8 °F 100% 29.37 in 1.5 mi Variable 4.6 mph - 0.05 in Rain Light Rain
7:40 PM 51.8 °F - 51.8 °F 100% 29.38 in 1.0 mi West 5.8 mph - 0.07 in Rain Rain
7:44 PM 51.8 °F - 51.8 °F 100% 29.38 in 1.5 mi WNW 6.9 mph - 0.07 in Rain Rain
7:48 PM 51.8 °F - 51.8 °F 100% 29.38 in 2.5 mi Calm Calm - 0.08 in Rain , Thunderstorm Rain
7:56 PM 52.0 °F - 52.0 °F 100% 29.37 in 2.5 mi Calm Calm - 0.09 in Rain , Thunderstorm Light Thunderstorms and Rain
8:06 PM 51.8 °F - 51.8 °F 100% 29.36 in 1.5 mi ESE 5.8 mph - 0.09 in Rain , Thunderstorm Thunderstorms and Rain
8:17 PM 51.8 °F - 51.8 °F 100% 29.36 in 1.8 mi East 5.8 mph - 0.17 in Rain , Thunderstorm Heavy Thunderstorms and Rain
8:21 PM 51.8 °F - 51.8 °F 100% 29.36 in 2.0 mi SSE 4.6 mph - 0.17 in Rain , Thunderstorm Thunderstorms and Rain
8:27 PM 51.8 °F - 51.8 °F 100% 29.37 in 5.0 mi South 4.6 mph - 0.17 in Rain Light Rain
8:36 PM 53.6 °F - 53.6 °F 100% 29.37 in 4.0 mi SSW 4.6 mph - 0.18 in Rain Light Rain
8:56 PM 52.9 °F - 52.9 °F 100% 29.37 in 6.0 mi WSW 5.8 mph - 0.18 in   Overcast
9:12 PM 53.6 °F - 53.6 °F 100% 29.39 in 6.0 mi SW 6.9 mph - 0.00 in   Overcast
9:56 PM 52.0 °F - 52.0 °F 100% 29.39 in 3.0 mi WSW 8.1 mph - 0.00 in   Overcast
10:25 PM 51.8 °F - 51.8 °F 100% 29.39 in 2.0 mi West 9.2 mph - 0.00 in Rain Light Rain
10:33 PM 51.8 °F - 51.8 °F 100% 29.39 in 2.0 mi WNW 9.2 mph - 0.00 in Rain Light Rain
10:41 PM 50.0 °F - 50.0 °F 100% 29.39 in 1.2 mi WNW 12.7 mph - 0.02 in Rain Heavy Rain
10:56 PM 48.9 °F - 48.9 °F 100% 29.39 in 2.5 mi NW 8.1 mph - 0.07 in Rain Rain
11:18 PM 48.2 °F - 48.2 °F 100% 29.40 in 4.0 mi WNW 9.2 mph - 0.01 in Rain Light Rain
11:28 PM 46.4 °F 41.5 °F 46.4 °F 100% 29.40 in 1.8 mi NW 10.4 mph - 0.02 in Rain Rain
11:40 PM 46.4 °F 40.4 °F 46.4 °F 100% 29.41 in 3.0 mi WNW 13.8 mph - 0.03 in Rain Light Rain
11:56 PM 45.0 °F 38.9 °F 45.0 °F 100% 29.44 in 5.0 mi WNW 12.7 mph - 0.03 in Rain Light Rain